CW6132 Weather Reports


time (UTC)temp
C
wind
direction
speed
KPH
gust
KPH
rain 1hr
cm
rain 24hr
cm
rain mn
cm
humidity
%
barometer
mb
20260505214205 28 266 1.6 4.8 0.00 0.00 0.00 77 1005.6
20260505213704 28 308 1.6 4.8 0.00 0.00 0.00 77 1005.6
20260505211704 28 302 1.6 8.0 0.00 0.00 0.00 76 1005.8
20260505211204 28 341 1.6 4.8 0.00 0.00 0.00 77 1005.9
20260505210704 28 313 1.6 4.8 0.00 0.00 0.00 77 1005.8
20260505205705 28 281 1.6 11.3 0.00 0.00 0.00 76 1006.1
20260505205203 28 290 1.6 8.0 0.00 0.00 0.00 77 1006.0
20260505204203 29 283 1.6 4.8 0.00 0.00 0.00 75 1006.1
20260505203704 28 298 1.6 4.8 0.00 0.00 0.00 76 1006.4
20260505203204 28 281 1.6 3.2 0.00 0.00 0.00 77 1006.3
20260505202704 28 76 1.6 8.0 0.00 0.00 0.00 77 1006.5
20260505202205 28 308 1.6 4.8 0.00 0.00 0.00 77 1006.6
20260505201703 28 205 1.6 3.2 0.00 0.00 0.00 78 1006.7
20260505195704 28 294 1.6 3.2 0.00 0.00 0.00 78 1006.8
20260505195204 28 279 1.6 3.2 0.00 0.00 0.00 77 1006.8
20260505194704 28 273 3.2 8.0 0.00 0.00 0.00 77 1006.8
20260505194204 28 324 1.6 8.0 0.00 0.00 0.00 76 1006.9
20260505193704 29 318 1.6 4.8 0.00 0.00 0.00 75 1006.9
20260505192204 28 308 1.6 4.8 0.00 0.00 0.00 76 1007.1
20260505191706 28 298 1.6 8.0 0.00 0.00 0.00 77 1007.0
20260505191204 28 226 1.6 4.8 0.00 0.00 0.00 77 1007.1
20260505190703 28 287 1.6 3.2 0.00 0.00 0.00 77 1007.1
20260505190204 28 342 1.6 3.2 0.00 0.00 0.00 78 1007.2
20260505185704 27 244 1.6 8.0 0.00 0.00 0.00 79 1007.2
20260505184704 27 137 1.6 4.8 0.00 0.00 0.00 79 1007.4
20260505184204 27 79 0.0 3.2 0.00 0.00 0.00 79 1007.3
20260505183703 27 304 1.6 4.8 0.00 0.00 0.00 80 1007.3
20260505183204 27 316 1.6 8.0 0.00 0.00 0.00 79 1007.3
20260505182704 27 269 1.6 4.8 0.00 0.00 0.00 79 1007.4
20260505182204 27 262 1.6 4.8 0.00 0.00 0.00 78 1007.4
20260505181704 27 282 0.0 3.2 0.00 0.00 0.00 79 1007.4
20260505180704 27 178 0.0 4.8 0.00 0.00 0.00 81 1007.6
20260505180204 27 297 1.6 4.8 0.00 0.00 0.00 80 1007.6
20260505175704 27 287 1.6 3.2 0.00 0.00 0.00 81 1007.7
20260505175204 27 293 1.6 3.2 0.00 0.00 0.00 81 1007.6
20260505174704 27 188 1.6 3.2 0.00 0.00 0.00 82 1007.7
20260505174204 27 289 1.6 3.2 0.00 0.00 0.00 82 1007.7
20260505173205 27 212 1.6 1.6 0.00 0.00 0.00 82 1007.9
20260505172704 26 274 1.6 1.6 0.00 0.00 0.00 82 1007.9
20260505172205 26 285 1.6 4.8 0.00 0.00 0.00 83 1007.8
20260505171703 26 261 1.6 8.0 0.00 0.00 0.00 83 1007.8
20260505171204 26 79 1.6 4.8 0.00 0.00 0.00 82 1007.9
20260505170705 26 281 1.6 3.2 0.00 0.00 0.00 81 1008.0
20260505170204 26 300 0.0 3.2 0.00 0.00 0.00 82 1008.0
20260505165704 26 312 0.0 1.6 0.00 0.00 0.00 82 1008.0
20260505165204 26 280 1.6 3.2 0.00 0.00 0.00 82 1008.1
20260505164704 26 333 1.6 3.2 0.00 0.00 0.00 82 1008.1
20260505164204 26 272 0.0 4.8 0.00 0.00 0.00 82 1008.0
20260505163204 26 280 1.6 4.8 0.00 0.00 0.00 83 1008.0
20260505162704 26 273 0.0 3.2 0.00 0.00 0.00 83 1007.9
20260505162204 26 312 0.0 3.2 0.00 0.00 0.00 83 1007.9
20260505161706 26 284 1.6 4.8 0.00 0.00 0.00 83 1007.9
20260505161204 26 274 1.6 3.2 0.00 0.00 0.00 83 1007.8
20260505160704 26 281 1.6 4.8 0.00 0.00 0.00 83 1007.8
20260505160204 26 254 1.6 3.2 0.00 0.00 0.00 83 1007.8
20260505153204 26 340 1.6 3.2 0.00 0.00 0.00 83 1007.6
20260505152204 26 284 1.6 4.8 0.00 0.00 0.00 84 1007.6
20260505151204 26 245 1.6 4.8 0.00 0.00 0.00 83 1007.6
20260505150705 26 322 1.6 4.8 0.00 0.00 0.00 83 1007.6
20260505150204 26 300 1.6 4.8 0.00 0.00 0.00 83 1007.5
20260505140204 24 248 0.0 3.2 0.00 0.00 0.00 87 1007.7
20260505130204 23 297 0.0 4.8 0.00 0.00 0.00 89 1007.4
20260505124704 23 284 1.6 3.2 0.00 0.00 0.00 90 1007.3
20260505124204 23 286 0.0 3.2 0.00 0.00 0.00 91 1007.3
20260505123705 23 292 1.6 3.2 0.00 0.00 0.00 91 1007.3
20260505123204 23 261 0.0 3.2 0.00 0.00 0.00 91 1007.3
20260505122704 23 273 0.0 3.2 0.00 0.00 0.00 91 1007.2
20260505122203 23 319 1.6 3.2 0.00 0.00 0.00 90 1007.0
20260505121704 23 266 0.0 3.2 0.00 0.00 0.00 90 1006.8
20260505121204 23 271 0.0 3.2 0.00 0.00 0.00 90 1006.8
20260505120704 23 338 1.6 4.8 0.00 0.00 0.00 90 1006.7
20260505120204 23 281 1.6 3.2 0.00 0.00 0.00 90 1006.8
20260505115704 22 281 1.6 3.2 0.00 0.00 0.00 90 1007.0
20260505115205 22 268 0.0 3.2 0.00 0.00 0.00 90 1007.1
20260505114203 22 289 0.0 1.6 0.00 0.00 0.00 91 1007.1
20260505113704 22 309 0.0 3.2 0.00 0.00 0.00 91 1007.1
20260505113203 22 278 0.0 3.2 0.00 0.00 0.00 91 1006.9
20260505112704 22 274 0.0 3.2 0.00 0.00 0.00 90 1006.9
20260505112204 22 264 1.6 3.2 0.00 0.00 0.00 90 1006.9
20260505111704 22 38 1.6 3.2 0.00 0.00 0.00 90 1006.9
20260505111204 22 254 1.6 3.2 0.00 0.00 0.00 90 1006.8
20260505110704 22 261 1.6 3.2 0.00 0.00 0.00 90 1006.8
20260505110204 22 308 1.6 3.2 0.00 0.00 0.00 90 1006.9
20260505102204 22 21 1.6 3.2 0.00 0.00 0.00 90 1006.9
20260505101704 22 286 0.0 3.2 0.00 0.00 0.00 90 1006.9
20260505101204 22 255 1.6 3.2 0.00 0.00 0.00 90 1007.1
20260505100704 22 275 0.0 3.2 0.00 0.00 0.00 90 1007.1
20260505100206 22 266 1.6 3.2 0.00 0.00 0.00 90 1007.1
20260505095704 22 279 1.6 4.8 0.00 0.00 0.00 90 1006.9
20260505095204 22 220 0.0 4.8 0.00 0.00 0.00 90 1006.8
20260505094704 22 292 0.0 3.2 0.00 0.00 0.00 90 1006.9
20260505094204 22 266 1.6 3.2 0.00 0.00 0.00 90 1007.0
20260505093704 22 295 0.0 3.2 0.00 0.00 0.00 90 1006.9
20260505093204 22 283 0.0 4.8 0.00 0.00 0.00 90 1007.0
20260505092704 22 280 1.6 3.2 0.00 0.00 0.00 90 1007.1
20260505092204 22 308 1.6 3.2 0.00 0.00 0.00 89 1007.2
20260505091704 22 283 0.0 3.2 0.00 0.00 0.00 89 1007.2
20260505091204 22 265 1.6 4.8 0.00 0.00 0.00 89 1007.3
20260505090703 22 280 1.6 1.6 0.00 0.00 0.00 90 1007.2
20260505085204 22 306 0.0 3.2 0.00 0.00 0.00 90 1007.3
20260505084704 22 280 0.0 3.2 0.00 0.00 0.00 90 1007.2
20260505084203 21 306 0.0 3.2 0.00 0.00 0.00 90 1007.3
20260505083204 21 271 0.0 1.6 0.00 0.00 0.00 90 1007.2
20260505082704 21 290 0.0 3.2 0.00 0.00 0.00 90 1007.4
20260505082204 21 253 0.0 3.2 0.00 0.00 0.00 90 1007.4
20260505081704 21 253 1.6 1.6 0.00 0.00 0.00 89 1007.6
20260505081204 21 295 1.6 8.0 0.00 0.00 0.00 89 1007.5
20260505080704 21 252 0.0 8.0 0.00 0.00 0.00 89 1007.5
20260505080204 21 258 1.6 3.2 0.00 0.00 0.00 89 1007.5
20260505075704 21 207 0.0 3.2 0.00 0.00 0.00 89 1007.6
20260505075204 21 281 0.0 1.6 0.00 0.00 0.00 89 1007.5
20260505074705 21 253 0.0 1.6 0.00 0.00 0.00 89 1007.6
20260505073704 21 296 1.6 3.2 0.00 0.00 0.00 89 1007.7
20260505073204 21 268 1.6 3.2 0.00 0.00 0.00 89 1007.7
20260505072704 21 289 1.6 3.2 0.00 0.00 0.00 89 1007.8
20260505072204 21 321 1.6 3.2 0.00 0.00 0.00 88 1007.8
20260505071706 21 268 1.6 3.2 0.00 0.00 0.00 88 1007.8
20260505071204 21 354 1.6 3.2 0.00 0.00 0.00 88 1007.8
20260505070704 21 9 1.6 3.2 0.00 0.00 0.00 88 1007.9
20260505070204 21 5 0.0 3.2 0.00 0.00 0.00 88 1007.9
20260505065704 21 317 1.6 3.2 0.00 0.00 0.00 88 1007.9
20260505065205 21 298 0.0 3.2 0.00 0.00 0.00 88 1008.0
20260505064704 21 276 0.0 3.2 0.00 0.00 0.00 88 1008.2
20260505064203 21 261 1.6 3.2 0.00 0.00 0.00 87 1008.2
20260505063704 21 247 1.6 4.8 0.00 0.00 0.00 87 1008.3
20260505063204 21 325 0.0 3.2 0.00 0.00 0.00 87 1008.5
20260505062704 21 302 0.0 1.6 0.00 0.00 0.00 87 1008.5
20260505062204 21 262 1.6 4.8 0.00 0.00 0.00 87 1008.6
20260505061204 21 249 0.0 1.6 0.00 0.00 0.00 87 1008.7
20260505060704 21 272 1.6 3.2 0.00 0.00 0.00 86 1008.7
20260505060204 21 332 1.6 3.2 0.00 0.00 0.00 86 1008.7
20260505055204 21 281 1.6 3.2 0.00 0.00 0.00 86 1008.6
20260505054204 21 304 1.6 3.2 0.00 0.00 0.00 86 1008.8
20260505053704 21 290 0.0 3.2 0.00 0.00 0.00 86 1008.9
20260505053204 21 282 1.6 3.2 0.00 0.00 0.00 86 1009.0
20260505052705 21 259 1.6 3.2 0.00 0.00 0.00 86 1008.9
20260505052205 21 297 1.6 1.6 0.00 0.00 0.00 85 1009.0
20260505051704 21 260 1.6 4.8 0.00 0.00 0.00 85 1008.9
20260505051204 21 314 1.6 8.0 0.00 0.00 0.00 85 1008.9
20260505050704 21 276 1.6 8.0 0.00 0.00 0.00 85 1008.9
20260505050204 21 290 1.6 3.2 0.00 0.00 0.00 85 1009.0
20260505041704 22 293 0.0 4.8 0.00 0.00 0.00 83 1009.1
20260505040704 22 298 0.0 3.2 0.00 0.00 0.00 82 1009.4
20260505040203 22 293 1.6 4.8 0.00 0.00 0.00 82 1009.3
20260505035704 22 294 1.6 3.2 0.00 0.00 0.00 82 1009.2
20260505035204 22 250 1.6 3.2 0.00 0.00 0.00 81 1009.4
20260505034703 22 292 1.6 3.2 0.00 0.00 0.00 81 1009.5
20260505034204 22 299 1.6 4.8 0.00 0.00 0.00 81 1009.4
20260505033705 22 275 1.6 1.6 0.00 0.00 0.00 80 1009.5
20260505033204 22 293 1.6 3.2 0.00 0.00 0.00 80 1009.6
20260505032705 22 263 1.6 3.2 0.00 0.00 0.00 79 1009.4
20260505032205 23 243 1.6 4.8 0.00 0.00 0.00 79 1009.4
20260505031705 23 286 1.6 3.2 0.00 0.00 0.00 78 1009.4
20260505031204 23 354 1.6 3.2 0.00 0.00 0.00 78 1009.4
20260505030704 23 280 1.6 3.2 0.00 0.00 0.00 78 1009.5
20260505025704 23 249 1.6 8.0 0.00 0.00 0.00 78 1009.4
20260505025204 23 256 1.6 3.2 0.00 0.00 0.00 77 1009.5
20260505024704 23 284 1.6 4.8 0.00 0.00 0.00 77 1009.4
20260505024205 23 224 1.6 4.8 0.00 0.00 0.00 77 1009.3
20260505023704 23 288 0.0 3.2 0.00 0.00 0.00 77 1009.4
20260505023204 23 327 1.6 4.8 0.00 0.00 0.00 77 1009.3
20260505022204 23 278 1.6 4.8 0.00 0.00 0.00 77 1009.3
20260505021704 23 270 1.6 4.8 0.00 0.00 0.00 77 1009.3
20260505021205 23 241 1.6 3.2 0.00 0.00 0.00 77 1009.2
20260505020705 23 299 1.6 4.8 0.00 0.00 0.00 77 1009.2
20260505020204 23 308 1.6 3.2 0.00 0.00 0.00 77 1009.2
20260505015704 23 166 1.6 4.8 0.00 0.00 0.00 77 1009.1
20260505015204 23 290 0.0 1.6 0.00 0.00 0.00 76 1009.1
20260505014704 23 303 1.6 4.8 0.00 0.00 0.00 76 1009.1
20260505014204 23 288 1.6 3.2 0.00 0.00 0.00 76 1009.0
20260505013704 23 306 1.6 4.8 0.00 0.00 0.00 76 1009.1
20260505013204 23 267 1.6 9.7 0.00 0.00 0.00 76 1009.0
20260505012704 23 265 1.6 4.8 0.00 0.00 0.00 75 1008.8
20260505012204 23 94 1.6 3.2 0.00 0.00 0.00 74 1008.9
20260505011704 23 232 1.6 4.8 0.00 0.00 0.00 74 1009.0
20260505010204 23 287 1.6 4.8 0.00 0.00 0.00 73 1008.9
20260505005204 24 318 1.6 9.7 0.00 0.00 0.00 73 1008.8
20260505004704 24 275 1.6 8.0 0.00 0.00 0.00 73 1008.6
20260505004204 24 216 3.2 9.7 0.00 0.00 0.00 72 1008.6
20260505003704 24 298 1.6 4.8 0.00 0.00 0.00 72 1008.6
20260505003204 24 349 1.6 8.0 0.00 0.00 0.00 72 1008.6
20260505002704 24 305 1.6 8.0 0.00 0.00 0.00 72 1008.7
20260505002206 24 225 1.6 9.7 0.00 0.00 0.00 72 1008.6
20260505001704 24 310 1.6 8.0 0.00 0.00 0.00 72 1008.6
20260505001204 25 342 3.2 8.0 0.00 0.00 0.00 71 1008.7
20260505000704 25 271 1.6 12.9 0.00 0.00 0.00 71 1008.7
20260504235704 25 308 1.6 4.8 0.00 0.00 0.00 70 1008.8
20260504235204 25 272 1.6 8.0 0.00 0.00 0.00 70 1008.7
20260504233704 25 266 1.6 4.8 0.00 0.00 0.00 70 1009.0
20260504233204 25 282 1.6 4.8 0.00 0.00 0.00 70 1009.0
20260504232704 25 339 1.6 8.0 0.00 0.00 0.00 69 1008.9
20260504232204 25 264 1.6 3.2 0.00 0.00 0.00 70 1009.0
20260504231704 25 310 1.6 11.3 0.00 0.00 0.00 69 1009.1
20260504231205 25 307 1.6 4.8 0.00 0.00 0.00 68 1009.0
20260504230704 26 289 1.6 8.0 0.00 0.00 0.00 68 1009.1
20260504230204 26 297 1.6 3.2 0.00 0.00 0.00 68 1009.1
20260504225704 26 303 1.6 4.8 0.00 0.00 0.00 68 1009.3
20260504225204 25 285 1.6 4.8 0.00 0.00 0.00 68 1009.2
20260504224703 26 327 1.6 4.8 0.00 0.00 0.00 68 1009.4
20260504224204 26 338 1.6 4.8 0.00 0.00 0.00 68 1009.3
20260504223705 26 348 1.6 4.8 0.00 0.00 0.00 67 1009.3
20260504223203 26 347 1.6 4.8 0.00 0.00 0.00 67 1009.4
20260504222704 26 293 3.2 4.8 0.00 0.00 0.00 66 1009.6
20260504222204 26 33 1.6 4.8 0.00 0.00 0.00 66 1009.6
20260504221204 26 73 1.6 3.2 0.00 0.00 0.00 66 1009.7
20260504220704 26 278 1.6 3.2 0.00 0.00 0.00 66 1009.7
20260504220204 26 325 1.6 4.8 0.00 0.00 0.00 66 1009.8
20260504215704 26 282 3.2 4.8 0.00 0.00 0.00 65 1009.8
20260504215205 26 314 3.2 8.0 0.00 0.00 0.00 64 1009.7
20260504214705 26 317 1.6 4.8 0.00 0.00 0.00 64 1009.9